Cordova, SC

12:46 AM EDT on July 30, 2016 (GMT -0400)
Orangeburg Municipal

Weather History for KOGB - July, 2013

Change the Weather History Date:

Thursday, July 11, 2013

  Actual Average Record
Temperature  
Mean Temperature 81 °F 82 °F  
Max Temperature 90 °F 93 °F 101 °F (1977)
Min Temperature 71 °F 71 °F 53 °F (1999)
Degree Days  
Heating Degree Days 0 0  
Month to date heating degree days 0 0  
Since 1 June heating degree days 0 1  
Since 1 July heating degree days 0 0  
Cooling Degree Days 16 17  
Month to date cooling degree days 167 180  
Year to date cooling degree days 853 881  
Since 1 June cooling degree days 591 578  
Growing Degree Days 30 (Base 50)    
Moisture  
Dew Point 71 °F    
Average Humidity 85    
Maximum Humidity 100    
Minimum Humidity 56    
Precipitation  
Precipitation 2.80 in 0.18 in 2.80 in (2013)
Month to date precipitation 8.39 2.04  
Year to date precipitation 32.66 24.78  
Sea Level Pressure  
Sea Level Pressure 29.95 in    
Wind  
Wind Speed 6 mph (South)    
Max Wind Speed 22 mph    
Max Gust Speed 28 mph    
Visibility 8 miles    
Events Fog , Rain    
T = Trace of Precipitation, MM = Missing Value Source: NWS Daily Summary

Daily Weather History Graph

Daily Weather History Graph

Search for Another Location

Airport or City:

Trip Planner

Search our weather history database for the weather conditions in past years. The results will help you decide how hot, cold, wet, or windy it might be!

Date:

Astronomy

Jul. 11, 2013 Rise Set
Actual Time 6:22 AM EDT 8:35 PM EDT
Civil Twilight 5:53 AM EDT 9:03 PM EDT
Nautical Twilight 5:19 AM EDT 9:38 PM EDT
Astronomical Twilight 4:41 AM EDT 10:16 PM EDT
Moon 9:27 AM EDT (7/11) 10:28 PM EDT (7/11)
Length of Visible Light 15h 09m
Length of Day
14h 12m
Waxing Crescent, 10% of the Moon is Illuminated
Jul 11
Waxing Crescent
Jul 15
First Quarter
Jul 22
Full
Jul 29
Last Quarter
Aug 6
New

Hourly Weather History & Observations

Time (EDT) Temp. Heat Index Dew Point Humidity Pressure Visibility Wind Dir Wind Speed Gust Speed Precip Events Conditions
12:27 AM 73.4 °F - 71.6 °F 94% 30.01 in 10.0 mi SSW 3.5 mph - N/A   Mostly Cloudy
12:39 AM 73.4 °F - 71.6 °F 94% 30.00 in 10.0 mi South 3.5 mph - N/A   Mostly Cloudy
12:53 AM 73.9 °F - 71.1 °F 91% 30.00 in 10.0 mi South 4.6 mph - N/A   Partly Cloudy
1:53 AM 73.9 °F - 71.1 °F 91% 29.99 in 10.0 mi SSW 5.8 mph - N/A   Clear
2:53 AM 73.0 °F - 70.0 °F 90% 29.99 in 10.0 mi Calm Calm - N/A   Clear
3:53 AM 73.0 °F - 70.0 °F 90% 29.98 in 10.0 mi South 4.6 mph - N/A   Clear
4:53 AM 73.0 °F - 71.1 °F 93% 29.98 in 10.0 mi SSW 3.5 mph - N/A   Clear
5:53 AM 72.0 °F - 71.1 °F 97% 29.98 in 10.0 mi Calm Calm - N/A   Clear
6:53 AM 73.0 °F - 71.1 °F 93% 29.99 in 9.0 mi Calm Calm - N/A   Partly Cloudy
7:10 AM 73.4 °F - 71.6 °F 94% 30.00 in 9.0 mi Calm Calm - N/A   Mostly Cloudy
7:18 AM 73.4 °F - 71.6 °F 94% 30.00 in 9.0 mi South 3.5 mph - N/A   Scattered Clouds
7:53 AM 73.9 °F - 72.0 °F 93% 29.99 in 10.0 mi SW 5.8 mph - N/A   Partly Cloudy
8:11 AM 75.2 °F - 71.6 °F 89% 30.00 in 10.0 mi WSW 8.1 mph - N/A   Mostly Cloudy
8:41 AM 75.2 °F - 71.6 °F 89% 30.00 in 10.0 mi SW 8.1 mph 27.6 mph N/A   Partly Cloudy
8:53 AM 77.0 °F - 72.0 °F 84% 30.00 in 10.0 mi SSW 8.1 mph - N/A   Partly Cloudy
9:53 AM 80.1 °F 83.6 °F 71.1 °F 74% 30.00 in 10.0 mi SSW 8.1 mph - N/A   Clear
10:53 AM 82.9 °F 88.0 °F 72.0 °F 69% 29.99 in 10.0 mi SW 9.2 mph - N/A   Partly Cloudy
11:53 AM 84.9 °F 90.1 °F 71.1 °F 63% 29.97 in 10.0 mi SW 6.9 mph - N/A   Scattered Clouds
12:53 PM 86.0 °F 91.5 °F 71.1 °F 61% 29.96 in 10.0 mi SW 9.2 mph - N/A   Partly Cloudy
1:53 PM 88.0 °F 93.8 °F 71.1 °F 57% 29.95 in 10.0 mi WSW 9.2 mph - N/A   Scattered Clouds
2:53 PM 88.0 °F 94.7 °F 72.0 °F 59% 29.92 in 10.0 mi SW 11.5 mph - N/A   Scattered Clouds
3:53 PM 89.1 °F 96.0 °F 72.0 °F 57% 29.89 in 10.0 mi South 8.1 mph - N/A   Scattered Clouds
4:53 PM 87.1 °F 93.6 °F 72.0 °F 61% 29.88 in 10.0 mi SSW 6.9 mph - N/A   Mostly Cloudy
5:53 PM 82.9 °F 89.4 °F 73.9 °F 74% 29.87 in 10.0 mi Calm Calm - 0.00 in   Overcast
6:53 PM 84.0 °F 91.2 °F 73.9 °F 72% 29.88 in 10.0 mi Calm Calm - N/A   Mostly Cloudy
7:27 PM 77.0 °F - 73.4 °F 89% 29.88 in 10.0 mi North 10.4 mph 17.3 mph 0.01 in   Overcast
7:37 PM 75.2 °F - 71.6 °F 89% 29.90 in 1.0 mi North 11.5 mph 23.0 mph 0.22 in Rain Heavy Rain
7:41 PM 75.2 °F - 71.6 °F 89% 29.89 in 0.5 mi NNE 21.9 mph 25.3 mph 0.35 in Fog , Rain Heavy Rain
7:53 PM 73.9 °F - 72.0 °F 93% 29.89 in 1.0 mi WNW 8.1 mph 18.4 mph 0.74 in Rain Heavy Rain
8:02 PM 75.2 °F - 71.6 °F 89% 29.90 in 0.8 mi East 5.8 mph - 0.19 in Rain Heavy Rain
8:29 PM 71.6 °F - 69.8 °F 94% 29.89 in 1.0 mi SE 9.2 mph - 0.85 in Rain Heavy Rain
8:35 PM 71.6 °F - 68.0 °F 88% 29.91 in 2.0 mi SE 9.2 mph - 0.90 in Rain Heavy Rain
8:44 PM 71.6 °F - 69.8 °F 94% 29.92 in 3.0 mi SE 10.4 mph - 0.99 in Rain Heavy Rain
8:53 PM 72.0 °F - 70.0 °F 93% 29.91 in 4.0 mi SSE 10.4 mph - 1.05 in Rain Heavy Rain
9:19 PM 71.6 °F - 69.8 °F 94% 29.94 in 3.0 mi SSE 8.1 mph - 0.17 in Rain Heavy Rain
9:53 PM 71.1 °F - 69.1 °F 93% 29.92 in 8.0 mi ENE 4.6 mph - 0.28 in Rain Light Rain
10:08 PM 71.6 °F - 69.8 °F 94% 29.94 in 10.0 mi Calm Calm - 0.00 in Rain Light Rain
10:48 PM 71.6 °F - 69.8 °F 94% 29.95 in 9.0 mi SE 3.5 mph - 0.05 in Rain Light Rain
10:53 PM 72.0 °F - 70.0 °F 93% 29.95 in 8.0 mi ESE 4.6 mph - 0.06 in Rain Rain
11:51 PM 71.6 °F - 69.8 °F 94% 29.95 in 2.0 mi SE 8.1 mph - 0.33 in Rain Heavy Rain
11:53 PM 72.0 °F - 70.0 °F 93% 29.94 in 1.8 mi SE 6.9 mph - 0.35 in Rain Heavy Rain